Location: Gwatt
(46.7204°N, 7.6223°E)
Time: 16:45:54
(UTC+00:00)

Meteor 2-5 Rocket - Pass Details

Date: 18 September 2020
Orbit: 833 x 912 km, 81.2° (Epoch: 28 October)

Event Time Altitude Azimuth Distance (km) Brightness Sun altitude
Rises 20:21:26 0° 345° (NNW) 3,416 7.6 -27.5°
Reaches altitude 10° 20:23:52 10° 342° (NNW) 2,485 6.8 -27.9°
Maximum altitude 20:29:23 59° 264° (W) 995 4.1 -28.6°
Enters shadow 20:30:23 51° 224° (SW) 1,079 4.2 -28.7°
